Fallon NAS, NV

2:37 AM PDT on October 18, 2017 (GMT -0700)
Fallon Naval Air Station

Weather History for KNFL - September, 2014

Change the Weather History Date:

Friday, September 19, 2014

  Actual Average Record
Temperature  
Mean Temperature 73 °F -  
Max Temperature 88 °F 76 °F 93 °F (2016)
Min Temperature 59 °F 42 °F 25 °F (1965)
Cooling Degree Days 8    
Growing Degree Days 23 (Base 50)    
Moisture  
Dew Point 41 °F    
Average Humidity 36    
Maximum Humidity 58    
Minimum Humidity 17    
Precipitation  
Precipitation 0.00 in - - ()
Sea Level Pressure  
Sea Level Pressure 29.91 in    
Wind  
Wind Speed 8 mph (NNW)    
Max Wind Speed 13 mph    
Max Gust Speed 17 mph    
Visibility 9 miles    
Events      
Averages and records for this station are not official NWS values.
T = Trace of Precipitation, MM = Missing Value Source: NWS Daily Summary

Daily Weather History Graph

Daily Weather History Graph

Search for Another Location

Airport or City:

Trip Planner

Search our weather history database for the weather conditions in past years. The results will help you decide how hot, cold, wet, or windy it might be!

Date:

Astronomy

Sep. 19, 2014 Rise Set
Actual Time 6:39 AM PDT 6:56 PM PDT
Civil Twilight 6:12 AM PDT 7:23 PM PDT
Nautical Twilight 5:41 AM PDT 7:54 PM PDT
Astronomical Twilight 5:09 AM PDT 8:26 PM PDT
Moon 2:30 AM PDT (9/19) 4:27 PM PDT (9/19)
Length of Visible Light 13h 10m
Length of Day
12h 16m
Waning Crescent, 17% of the Moon is Illuminated
Sep 19
Waning Crescent
Sep 23
New
Oct 1
First Quarter
Oct 8
Full
Oct 15
Last Quarter

Hourly Weather History & Observations

Time (PDT) Temp. Dew Point Humidity Pressure Visibility Wind Dir Wind Speed Gust Speed Precip Events Conditions
12:56 AM 64.9 °F 45.0 °F 48% 29.88 in 6.0 mi WNW 8.1 mph - N/A   Haze
1:56 AM 64.9 °F 46.9 °F 52% 29.90 in 7.0 mi WNW 9.2 mph - 0.00 in   Overcast
2:56 AM 63.0 °F 46.9 °F 56% 29.90 in 10.0 mi NW 5.8 mph - N/A   Overcast
3:56 AM 64.0 °F 45.0 °F 50% 29.90 in 10.0 mi NNW 8.1 mph - N/A   Overcast
4:56 AM 62.1 °F 44.1 °F 52% 29.91 in 10.0 mi North 5.8 mph - N/A   Scattered Clouds
5:56 AM 62.1 °F 42.1 °F 48% 29.92 in 10.0 mi NE 6.9 mph - N/A   Overcast
6:20 AM 62.1 °F 43.0 °F 50% 30.01 in 8.0 mi NE 8.1 mph - N/A   Scattered Clouds
6:56 AM 59.0 °F 44.1 °F 58% 29.94 in 6.0 mi West 8.1 mph - N/A   Haze
7:56 AM 62.6 °F 46.4 °F 55% 29.96 in 8.0 mi WNW 6.9 mph - N/A   Scattered Clouds
8:56 AM 69.1 °F 45.0 °F 42% 29.96 in 10.0 mi NW 10.4 mph - N/A   Partly Cloudy
9:56 AM 73.0 °F 44.1 °F 35% 29.96 in 10.0 mi NNW 10.4 mph - N/A   Partly Cloudy
10:56 AM 75.9 °F 44.1 °F 32% 29.96 in 10.0 mi NNW 12.7 mph 17.3 mph N/A   Partly Cloudy
11:56 AM 80.1 °F 41.0 °F 25% 29.95 in 10.0 mi North 10.4 mph 17.3 mph N/A   Partly Cloudy
12:56 PM 82.4 °F 39.2 °F 21% 29.93 in 10.0 mi North 12.7 mph 16.1 mph N/A   Scattered Clouds
1:56 PM 84.2 °F 39.2 °F 20% 29.91 in 10.0 mi North 12.7 mph 17.3 mph N/A   Scattered Clouds
2:56 PM 87.8 °F 37.4 °F 17% 29.89 in 10.0 mi North 8.1 mph - N/A   Scattered Clouds
3:56 PM 86.0 °F 37.4 °F 18% 29.87 in 10.0 mi NW 5.8 mph - N/A   Scattered Clouds
4:56 PM 86.0 °F 37.4 °F 18% 29.86 in 10.0 mi Variable 3.5 mph - N/A   Scattered Clouds
5:56 PM 86.0 °F 39.2 °F 19% 29.86 in 10.0 mi NNW 8.1 mph - N/A   Scattered Clouds
6:56 PM 80.6 °F 39.2 °F 23% 29.86 in 10.0 mi WNW 5.8 mph - N/A   Scattered Clouds
7:56 PM 73.9 °F 39.9 °F 29% 29.87 in 10.0 mi NW 6.9 mph - N/A   Partly Cloudy
8:56 PM 72.0 °F 39.0 °F 30% 29.89 in 10.0 mi North 9.2 mph - N/A   Partly Cloudy
9:56 PM 73.0 °F 37.0 °F 27% 29.90 in 10.0 mi North 9.2 mph - N/A   Partly Cloudy
10:56 PM 66.9 °F 37.0 °F 33% 29.90 in 10.0 mi North 8.1 mph - N/A   Clear
11:56 PM 63.0 °F 36.0 °F 37% 29.91 in 10.0 mi Calm Calm - N/A   Clear